Angel Fire, NM

11:16 PM MST on December 15, 2019 (GMT -0700)
Angel Fire

Weather History for KAXX - October, 2019

Change the Weather History Date:

Sunday, October 20, 2019

  Actual Average (KSKX) Record (KSKX)
Temperature  
Mean Temperature 32 °F -  
Max Temperature 45 °F 59 °F 78 °F (2003)
Min Temperature 18 °F 27 °F 21 °F (2006)
Degree Days  
Heating Degree Days 34    
Moisture  
Dew Point 2 °F    
Average Humidity 23    
Maximum Humidity 45    
Minimum Humidity 12    
Precipitation  
Precipitation 0.00 in - - ()
Sea Level Pressure  
Sea Level Pressure 29.92 in    
Wind  
Wind Speed 16 mph (WSW)    
Max Wind Speed 32 mph    
Max Gust Speed 48 mph    
Visibility 10 miles    
Events      
Averages and records for this station are not official NWS values.
T = Trace of Precipitation, MM = Missing Value Source: NWS Daily Summary

Daily Weather History Graph

Daily Weather History Graph

Search for Another Location

Airport or City:

Astronomy

Oct. 20, 2019 Rise Set
Actual Time 7:12 AM MDT 6:18 PM MDT
Civil Twilight 6:46 AM MDT 6:44 PM MDT
Nautical Twilight 6:16 AM MDT 7:14 PM MDT
Astronomical Twilight 5:46 AM MDT 7:44 PM MDT
Moon 11:36 PM MDT (10/20) 1:36 PM MDT (10/20)
Length of Visible Light 11h 58m
Length of Day
11h 05m
Waning Gibbous, 58% of the Moon is Illuminated
Oct 20
Waning Gibbous
Oct 21
Last Quarter
Oct 27
New
Nov 4
First Quarter
Nov 12
Full

Hourly Weather History & Observations

Time (MDT) Temp. Windchill Dew Point Humidity Pressure Visibility Wind Dir Wind Speed Gust Speed Precip Events Conditions
12:15 AM 43.7 °F 36.6 °F 6.8 °F 22% 29.92 in 10.0 mi SW 15.0 mph 18.4 mph N/A   Clear
12:35 AM 43.3 °F 35.8 °F 6.3 °F 22% 29.92 in 10.0 mi SSW 16.1 mph 24.2 mph N/A   Clear
12:55 AM 41.9 °F 34.3 °F 5.9 °F 23% 29.91 in 10.0 mi SSW 15.0 mph 24.2 mph N/A   Clear
1:15 AM 42.1 °F 34.5 °F 5.2 °F 22% 29.91 in 10.0 mi SSW 15.0 mph - N/A   Clear
1:35 AM 42.3 °F 33.8 °F 4.6 °F 21% 29.90 in 10.0 mi SSW 18.4 mph 21.9 mph N/A   Clear
1:55 AM 42.8 °F 36.2 °F 4.6 °F 21% 29.90 in 10.0 mi SW 12.7 mph 19.6 mph N/A   Clear
2:15 AM 43.2 °F 36.2 °F 5.4 °F 21% 29.89 in 10.0 mi SSW 13.8 mph 21.9 mph N/A   Clear
2:35 AM 42.8 °F 35.4 °F 6.6 °F 23% 29.89 in 10.0 mi SSW 15.0 mph 19.6 mph N/A   Clear
2:55 AM 43.5 °F 37.5 °F 7.3 °F 23% 29.88 in 10.0 mi SSW 11.5 mph 20.7 mph N/A   Clear
3:15 AM 44.6 °F 39.7 °F 7.3 °F 22% 29.88 in 10.0 mi SW 9.2 mph 21.9 mph N/A   Scattered Clouds
3:35 AM 45.1 °F 39.9 °F 7.7 °F 22% 29.88 in 10.0 mi SW 10.4 mph 26.5 mph N/A   Overcast
3:55 AM 44.8 °F 37.4 °F 7.9 °F 22% 29.88 in 10.0 mi WSW 17.3 mph 31.1 mph N/A   Overcast
4:15 AM 43.3 °F 35.5 °F 7.7 °F 23% 29.88 in 10.0 mi WSW 17.3 mph 25.3 mph N/A   Overcast
4:35 AM 43.2 °F 36.2 °F 7.7 °F 23% 29.88 in 10.0 mi West 13.8 mph 25.3 mph N/A   Overcast
4:55 AM 43.7 °F 36.6 °F 7.7 °F 23% 29.88 in 10.0 mi WSW 15.0 mph 24.2 mph N/A   Overcast
5:15 AM 43.3 °F 35.8 °F 9.0 °F 25% 29.88 in 10.0 mi WSW 16.1 mph 26.5 mph N/A   Overcast
5:35 AM 43.2 °F 37.4 °F 9.3 °F 25% 29.88 in 10.0 mi WSW 10.4 mph 25.3 mph N/A   Overcast
5:55 AM 42.8 °F 36.2 °F 9.9 °F 26% 29.87 in 10.0 mi West 12.7 mph 20.7 mph N/A   Overcast
6:15 AM 42.8 °F 34.8 °F 9.7 °F 26% 29.86 in 10.0 mi WSW 17.3 mph 24.2 mph N/A   Overcast
6:35 AM 42.1 °F 33.9 °F 9.5 °F 26% 29.86 in 10.0 mi WSW 17.3 mph 29.9 mph N/A   Overcast
6:55 AM 42.3 °F 33.8 °F 9.5 °F 26% 29.85 in 10.0 mi WSW 18.4 mph 25.3 mph N/A   Overcast
7:15 AM 42.1 °F 33.3 °F 8.6 °F 25% 29.85 in 10.0 mi West 19.6 mph 28.8 mph N/A   Overcast
7:35 AM 41.9 °F 34.6 °F 9.3 °F 26% 29.84 in 10.0 mi West 13.8 mph 21.9 mph N/A   Overcast
7:55 AM 42.8 °F 34.5 °F 9.5 °F 26% 29.84 in 10.0 mi West 18.4 mph 29.9 mph N/A   Overcast
8:15 AM 41.9 °F 34.0 °F 8.8 °F 26% 29.85 in 10.0 mi West 16.1 mph 25.3 mph N/A   Overcast
8:35 AM 41.5 °F 33.5 °F 7.7 °F 25% 29.86 in 10.0 mi West 16.1 mph 28.8 mph N/A   Overcast
8:55 AM 41.4 °F 33.6 °F 8.1 °F 25% 29.87 in 10.0 mi WSW 15.0 mph 21.9 mph N/A   Overcast
9:15 AM 41.5 °F 32.4 °F 8.2 °F 25% 29.88 in 10.0 mi WSW 20.7 mph 29.9 mph N/A   Overcast
9:35 AM 41.5 °F 32.4 °F 8.1 °F 25% 29.89 in 10.0 mi West 20.7 mph 34.5 mph N/A   Overcast
9:55 AM 41.4 °F 32.1 °F 8.6 °F 26% 29.90 in 10.0 mi WSW 20.7 mph 28.8 mph N/A   Overcast
10:15 AM 41.4 °F 34.7 °F 10.6 °F 28% 29.90 in 10.0 mi WSW 11.5 mph 28.8 mph N/A   Overcast
10:35 AM 41.7 °F 34.8 °F 14.2 °F 33% 29.90 in 10.0 mi West 12.7 mph 18.4 mph N/A   Overcast
10:55 AM 43.0 °F 35.4 °F 16.5 °F 34% 29.90 in 10.0 mi WSW 16.1 mph 31.1 mph N/A   Overcast
11:15 AM 43.0 °F 35.4 °F 14.9 °F 32% 29.89 in 10.0 mi West 16.1 mph 31.1 mph N/A   Overcast
11:40 AM 43.9 °F 34.7 °F 9.1 °F 24% 29.88 in 10.0 mi WSW 24.2 mph 35.7 mph N/A   Scattered Clouds
11:55 AM 44.1 °F 34.2 °F 7.2 °F 22% 29.87 in 10.0 mi West 28.8 mph 39.1 mph N/A   Scattered Clouds
12:15 PM 42.8 °F 34.0 °F 2.3 °F 19% 29.88 in 10.0 mi WSW 20.7 mph 48.3 mph N/A   Clear
12:35 PM 42.8 °F 34.8 °F -1.7 °F 16% 29.87 in 10.0 mi West 17.3 mph 43.7 mph N/A   Clear
12:55 PM 43.5 °F 35.5 °F -2.4 °F 15% 29.87 in 10.0 mi West 18.4 mph 38.0 mph N/A   Clear
1:15 PM 43.0 °F 32.2 °F -4.9 °F 13% 29.87 in 10.0 mi West 32.2 mph 40.3 mph N/A   Clear
1:35 PM 43.2 °F 33.4 °F -6.5 °F 12% 29.88 in 10.0 mi West 26.5 mph 38.0 mph N/A   Clear
1:55 PM 42.4 °F 31.4 °F -7.4 °F 12% 29.88 in 10.0 mi WNW 32.2 mph 42.6 mph N/A   Clear
2:15 PM 42.1 °F 31.0 °F -8.5 °F 12% 29.88 in 10.0 mi West 32.2 mph 40.3 mph N/A   Clear
2:35 PM 41.0 °F 30.7 °F -8.5 °F 12% 29.88 in 10.0 mi West 25.3 mph 39.1 mph N/A   Clear
2:55 PM 41.2 °F 31.1 °F -8.7 °F 12% 29.89 in 10.0 mi West 24.2 mph 33.4 mph N/A   Clear
3:15 PM 41.7 °F 30.6 °F -7.6 °F 12% 29.88 in 10.0 mi West 31.1 mph 46.0 mph N/A   Clear
3:35 PM 41.9 °F 32.3 °F -7.6 °F 12% 29.88 in 10.0 mi West 23.0 mph 35.7 mph N/A   Clear
3:55 PM 41.5 °F 30.8 °F -7.4 °F 12% 29.89 in 10.0 mi West 28.8 mph 40.3 mph N/A   Scattered Clouds
4:15 PM 41.2 °F 31.9 °F -7.6 °F 13% 29.90 in 10.0 mi West 20.7 mph 33.4 mph N/A   Clear
4:35 PM 41.0 °F 30.0 °F -7.2 °F 13% 29.90 in 10.0 mi West 28.8 mph 43.7 mph N/A   Clear
4:55 PM 40.1 °F 29.0 °F -7.6 °F 13% 29.91 in 10.0 mi West 27.6 mph 39.1 mph N/A   Clear
5:15 PM 40.5 °F 32.8 °F -7.1 °F 13% 29.92 in 10.0 mi West 13.8 mph 34.5 mph N/A   Mostly Cloudy
5:35 PM 40.3 °F 29.7 °F -7.6 °F 13% 29.92 in 10.0 mi West 25.3 mph 32.2 mph N/A   Overcast
5:55 PM 39.0 °F 29.3 °F -8.5 °F 13% 29.93 in 10.0 mi West 19.6 mph 36.8 mph N/A   Overcast
6:15 PM 36.7 °F 26.6 °F -5.6 °F 16% 29.95 in 10.0 mi West 18.4 mph 28.8 mph N/A   Mostly Cloudy
6:35 PM 35.6 °F 25.9 °F -4.0 °F 18% 29.97 in 10.0 mi West 16.1 mph 26.5 mph N/A   Clear
6:55 PM 34.7 °F 25.9 °F -3.1 °F 20% 29.98 in 10.0 mi West 12.7 mph 25.3 mph N/A   Clear
7:15 PM 34.7 °F 24.3 °F -2.4 °F 21% 29.99 in 10.0 mi West 17.3 mph 28.8 mph N/A   Mostly Cloudy
7:35 PM 33.8 °F 23.5 °F -2.2 °F 22% 29.99 in 10.0 mi West 16.1 mph 27.6 mph N/A   Mostly Cloudy
7:55 PM 32.4 °F 23.0 °F -1.8 °F 23% 30.00 in 10.0 mi West 12.7 mph 21.9 mph N/A   Mostly Cloudy
8:15 PM 32.0 °F 22.5 °F -1.5 °F 24% 30.01 in 10.0 mi WNW 12.7 mph 19.6 mph N/A   Scattered Clouds
8:35 PM 31.6 °F 22.6 °F -1.3 °F 24% 30.01 in 10.0 mi WNW 11.5 mph 18.4 mph N/A   Clear
8:55 PM 31.8 °F 24.6 °F -1.3 °F 24% 30.02 in 10.0 mi NW 8.1 mph 16.1 mph N/A   Clear
9:15 PM 28.8 °F - -1.7 °F 27% 30.02 in 10.0 mi Calm Calm - N/A   Clear
9:35 PM 24.6 °F 18.8 °F -1.1 °F 33% 30.02 in 10.0 mi East 4.6 mph - N/A   Clear
9:55 PM 25.9 °F 21.7 °F -0.2 °F 32% 30.02 in 10.0 mi South 3.5 mph - N/A   Clear
10:15 PM 21.6 °F 16.8 °F 1.6 °F 42% 30.03 in 10.0 mi South 3.5 mph - N/A   Clear
10:35 PM 20.8 °F 14.4 °F 0.3 °F 41% 30.03 in 10.0 mi SSE 4.6 mph - N/A   Clear
10:55 PM 18.9 °F - 0.5 °F 45% 30.03 in 10.0 mi Calm Calm - N/A   Clear
11:15 PM 20.3 °F - 0.1 °F 41% 30.03 in 10.0 mi Calm Calm - N/A   Clear
11:35 PM 22.8 °F - 1.2 °F 39% 30.03 in 10.0 mi Calm Calm - N/A   Clear
11:55 PM 23.7 °F 16.6 °F 1.8 °F 39% 30.03 in 10.0 mi NW 5.8 mph - N/A   Clear